Overview Statistics Trail Chart Weather Telemetry Raw packets
 

This is the latest recevied weather packets stored in our database for station/object WE1C. If no packets are shown the sender has not sent any weather packets the latest 10 day(s).

<< 24 25 26 27 28 29 30 >>
Time Temp. Humidity Pressure Rain* Wind** Luminosity Snow
1788444844 20° C 99% 1043.2 hPa 0 mm - 206 W/m² -
1788444540 19.44° C 99% 1043.2 hPa 0 mm - 202 W/m² -
1788444235 19.44° C 99% 1043.2 hPa 0 mm - 159 W/m² -
1788443930 19.44° C 99% 1042.9 hPa 0 mm - 172 W/m² -
1788443626 19.44° C 99% 1043.1 hPa 0 mm - 335 W/m² -
1788443324 18.89° C 99% 1043.3 hPa 0 mm - 203 W/m² -
1788443020 18.89° C 99% 1043.4 hPa 0 mm - 93 W/m² -
1788442718 18.89° C 99% 1043.2 hPa 0 mm - 64 W/m² -
1788442414 18.89° C 99% 1043.4 hPa 0 mm - 72 W/m² -
1788442114 18.89° C 99% 1043.4 hPa 0 mm - 93 W/m² -
1788441810 18.33° C 99% 1043.4 hPa 0 mm - 85 W/m² -
1788441504 18.33° C 99% 1043.3 hPa 0 mm - 62 W/m² -
1788441204 18.33° C 99% 1043.4 hPa 0 mm - 65 W/m² -
1788440903 18.33° C 99% 1043.2 hPa 0 mm - 88 W/m² -
1788440598 18.33° C 99% 1043.4 hPa 0 mm - 75 W/m² -
1788440297 17.78° C 99% 1043.5 hPa 0 mm - 65 W/m² -
1788439992 17.78° C 99% 1043.3 hPa 0 mm - 67 W/m² -
1788439692 17.78° C 99% 1043.5 hPa 0 mm - 85 W/m² -
1788439387 17.78° C 99% 1043.5 hPa 0 mm - 76 W/m² -
1788439086 17.22° C 99% 1043.7 hPa 0 mm - 82 W/m² -
1788438786 17.22° C 99% 1043.6 hPa 0 mm - 77 W/m² -
1788438484 17.22° C 99% 1043.7 hPa 0 mm - 59 W/m² -
1788438179 17.22° C 99% 1043.8 hPa 0 mm - 58 W/m² -
1788437877 16.67° C 99% 1043.7 hPa 0 mm - 55 W/m² -
1788437573 16.67° C 99% 1043.8 hPa 0 mm - 50 W/m² -

* Rain latest hour (hover to see other rain measurements)
** Current wind speed in m/s (hover to see current wind gust speed)